Location: Grassland Mountain Observatory
(35.7543°N, 82.8038°W)
Time: 13:27:13
(UTC-05:00)

ISS - Visible Passes

Search period start: 07 December 2021 00:00
Search period end: 17 December 2021 00:00
Orbit: 417 x 422 km, 51.6° (Epoch: 07 December)

Date Brightness Start Highest point End Pass type
(mag) Time Alt. Az. Time Alt. Az. Time Alt. Az.
07 Dec -2.5 19:05:10 10° WNW 19:08:21 40° SW 19:09:19 31° S visible
08 Dec -3.6 18:17:38 10° NW 18:21:01 78° SW 18:24:22 10° SE visible
09 Dec -0.4 19:08:43 10° WSW 19:10:03 12° SW 19:11:22 10° SSW visible
10 Dec -0.9 18:20:10 10° WNW 18:22:49 21° SW 18:25:27 10° S visible
16 Dec -1.2 07:04:14 10° S 07:07:07 27° SE 07:10:00 10° ENE visible
